Home > Weather > Waco > Past weeks

Flag for U.S.A. Weather for the Past 2 Weeks in Waco, Texas, U.S.A.

Now
45 °F

Clear.


Feels Like: 39 °F
Forecast: 39 / 57 °F
Wind: 14 mph from North

Location: Waco Regional Airport

Current Time: Feb 8, 2016 at 5:03:58 AM

Latest Report: Feb 8, 2016 at 3:51 AM


Visibility: 10 mi

Pressure: 30.29 "Hg

Humidity: 45%

Dew point: 25 °F

Location of WacoLocation

Historic Weather in Waco — Graph

°F

Waco Temperature Yesterday

Maximum temperature yesterday: 66 °F (at 3:51 PM)
Minimum temperature yesterday: 29 °F (at 1:51 AM)
Average temperature yesterday: 46 °F

High & Low Weather Summary for the Past Weeks

 TemperatureHumidityPressure
High82 °F (Jan 31, 2:51 PM)96% (Feb 7, 1:51 AM)30.53 "Hg (Feb 7, 1:51 AM)
Low26 °F (Feb 4, 5:51 AM)17% (Feb 2, 1:51 PM)29.50 "Hg (Feb 1, 9:51 PM)
Average50 °F58%30.08 "Hg
* Reported Jan 24 3:51 AM — Feb 8 3:51 AM, Waco, Weather by CustomWeather, © 2016

Note: Actual official high and low records may vary slightly from our data, if they occured in-between our weather recording intervals... More about our weather records

Advertising

Waco Weather History for the Previous 24 Hours

 ConditionsComfort  
Time TempWeatherWind HumidityBarometerVisibility
3:51 AM
Mon, Feb 8
45 °FClear.14 mph45%30.29 "Hg10 mi
2:51 AM45 °FClear.12 mph51%30.27 "Hg10 mi
1:51 AM45 °FClear.9 mph56%30.26 "Hg10 mi
12:51 AM46 °FClear.10 mph58%30.23 "Hg10 mi
11:51 PM
Sun, Feb 7
46 °FClear.10 mph66%30.23 "Hg10 mi
10:51 PM47 °FClear.10 mph64%30.21 "Hg10 mi
9:51 PM45 °FClear.7 mph65%30.19 "Hg10 mi
8:51 PM41 °FClear.5 mph74%30.17 "Hg10 mi
7:51 PM48 °FClear.6 mph59%30.14 "Hg10 mi
6:51 PM52 °FClear.7 mph53%30.11 "Hg10 mi
5:51 PM58 °FSunny.8 mph44%30.10 "Hg10 mi
4:51 PM65 °FSunny.8 mph32%30.08 "Hg10 mi
3:51 PM66 °FSunny.9 mph31%30.08 "Hg10 mi
2:51 PM64 °FSunny.12 mph33%30.10 "Hg10 mi
1:51 PM62 °FSunny.17 mph37%30.11 "Hg10 mi
12:51 PM61 °FSunny.15 mph39%30.16 "Hg10 mi
11:51 AM57 °FSunny.16 mph46%30.20 "Hg10 mi
10:51 AM51 °FSunny.9 mph59%30.26 "Hg10 mi
9:51 AM47 °FSunny.14 mph71%30.27 "Hg10 mi
8:51 AM40 °FSunny.10 mph86%30.26 "Hg7 mi
7:51 AM34 °FFog.6 mph92%30.26 "Hg5 mi
6:51 AM32 °FIce fog.7 mph92%30.25 "Hg6 mi
5:51 AM33 °FFog.10 mph88%30.26 "Hg6 mi
Weather by CustomWeather, © 2016

See weather overviewHow to use our weather pages